Regional Weather Roundup
Issued by NWS Burlington, VT

Home | Current Version | Previous Version | Text Only | Print | Product List | Glossary On
Versions: 1 2 3 4 5 6 7 8 9 10 11 12 13 14 15 16 17 18 19 20 21 22 23 24 25 26 27 28 29 30 31 32 33 34 35 36 37 38 39 40 41 42 43 44 45 46 47 48 49 50
000
ASUS41 KBTV 160510
RWRBTV
VERMONT REGIONAL WEATHER ROUNDUP
NATIONAL WEATHER SERVICE BURLINGTON VT
100 AM EDT TUE SEP 16 2014

NOTE: "FAIR" INDICATES FEW OR NO CLOUDS BELOW 12,000 FEET WITH NO
SIGNIFICANT WEATHER AND/OR OBSTRUCTIONS TO VISIBILITY.

* THESE REPORTS ARE NOT UNDER NWS QUALITY CONTROL AND/OR DO NOT
  REPORT WEATHER SUCH AS PRECIPITATION AND FOG.

VTZ001>019-160600-
_____VERMONT_____


CITY           SKY/WX    TMP DP  RH WIND       PRES   REMARKS
BURLINGTON     LGT RAIN  56  46  69 S8        30.04S
MONTPELIER     CLOUDY    50  46  86 SW3       30.10F
MORRISVILLE    CLOUDY    50  46  86 S3        30.06F
ST. JOHNSBURY*   N/A     48  46  93 MISG      30.06F
MIDDLEBURY*    CLOUDY    55  46  71 S3        30.05F
RUTLAND*       CLOUDY    50  46  87 SE8       30.08S
SPRINGFIELD    LGT RAIN  49  48  97 CALM      30.10F
HIGHGATE*      DRIZZLE   53  48  83 S5        30.04S
NEWPORT*       CLOUDY    50  44  80 S6        30.05S
BENNINGTON     CLOUDY    51  46  83 CALM      30.07F
SUTTON*          N/A     46 N/A N/A MISG        N/A

_____LAKE CHAMPLAIN_____


CITY           SKY/WX    TMP DP  RH WIND       PRES   REMARKS
COLCHESTER RF*   N/A     59  50  72 S20         N/A
DIAMOND ISL*     N/A     55  48  76 S5          N/A

$$

NYZ007-026>031-035-052-083-160600-
_____NORTHERN NEW YORK_____


CITY           SKY/WX    TMP DP  RH WIND       PRES   REMARKS
PLATTSBURGH    CLOUDY    52  50  93 CALM      30.03S
SARANAC LAKE   CLOUDY    49  47  93 CALM      30.02F
MASSENA        CLOUDY    53  51  93 CALM      30.02F
OGDENSBURG*    LGT RAIN  54  52  94 CALM      30.02S
WATERTOWN      CLOUDY    56  49  77 SE5       30.01F
FT DRUM        CLOUDY    54  52  94 S6        30.02F
ALBANY         LGT RAIN  56  47  71 S3        30.05F
GLENS FALLS    CLOUDY    53  50  89 E3        30.05F

$$
NHZ002-005-011-160600-
_____NEW HAMPSHIRE_____


CITY           SKY/WX    TMP DP  RH WIND       PRES   REMARKS
LEBANON        LGT RAIN  50  47  89 CALM      30.08F
KEENE          MOCLDY    50  43  76 CALM      30.10F
MT WASHINGTON  LGT RAIN  34  32  93 W25         N/A
PLYMOUTH       LGT RAIN  47  47 100 CALM      30.10S
WHITEFIELD     LGT RAIN  46  43  89 CALM      30.07F

$$

_____REGIONAL QUEBEC LOCATIONS_____


CITY           SKY/WX    TMP DP  RH WIND       PRES   REMARKS
MONTREAL       LGT RAIN  55  50  82 SW10      30.01F
QUEBEC CITY    LGT RAIN  50  50 100 SW5       29.98F
SHERBROOKE     LGT RAIN  46  45  93 E3        30.03S

_____REGIONAL ONTARIO LOCATIONS_____


CITY           SKY/WX    TMP DP  RH WIND       PRES   REMARKS
OTTAWA         LGT RAIN  52  50  93 SW6       29.99F

______KEY______
VSB  - VISIBILITY IN MILES
WCI  - WIND CHILL INDEX
HX   - HEAT INDEX
$$
NNNN



USA.gov is the U.S. government's official web portal to all federal, state and local government web resources and services.